TimeCST,TemperatureF,Dew PointF,Humidity,Sea Level PressureIn,VisibilityMPH,Wind Direction,Wind SpeedMPH,Gust SpeedMPH,PrecipitationIn,Events,Conditions,WindDirDegrees,DateUTC
12:15 AM,24.4,19.0,80,29.76,10.0,West,15.0,-,N/A,,Clear,270,2014-02-21 06:15:00
12:35 AM,24.3,18.9,80,29.76,10.0,West,16.1,-,N/A,,Clear,280,2014-02-21 06:35:00
12:55 AM,23.9,19.0,82,29.77,10.0,West,13.8,20.7,N/A,,Clear,270,2014-02-21 06:55:00
1:15 AM,23.7,19.0,82,29.77,10.0,West,17.3,-,N/A,,Clear,280,2014-02-21 07:15:00
1:35 AM,23.0,19.0,85,29.77,10.0,West,13.8,-,N/A,,Clear,280,2014-02-21 07:35:00
1:55 AM,23.0,18.9,84,29.77,10.0,West,15.0,-,N/A,,Clear,280,2014-02-21 07:55:00
2:15 AM,23.4,18.5,82,29.77,10.0,West,16.1,20.7,N/A,,Clear,280,2014-02-21 08:15:00
2:35 AM,23.4,18.5,82,29.77,10.0,West,17.3,-,N/A,,Clear,270,2014-02-21 08:35:00
2:55 AM,23.0,18.3,82,29.77,10.0,West,12.7,-,N/A,,Clear,270,2014-02-21 08:55:00
3:15 AM,23.0,18.1,82,29.77,10.0,West,13.8,19.6,N/A,,Clear,270,2014-02-21 09:15:00
3:35 AM,22.1,18.0,84,29.76,10.0,WNW,8.1,-,N/A,,Clear,300,2014-02-21 09:35:00
3:55 AM,21.2,18.0,87,29.78,10.0,West,11.5,-,N/A,,Clear,260,2014-02-21 09:55:00
4:15 AM,23.0,17.6,80,29.78,10.0,West,13.8,-,N/A,,Clear,270,2014-02-21 10:15:00
4:35 AM,23.9,18.0,78,29.79,10.0,West,11.5,-,N/A,,Clear,260,2014-02-21 10:35:00
4:55 AM,24.1,18.0,77,29.79,10.0,West,9.2,-,N/A,,Clear,270,2014-02-21 10:55:00
5:15 AM,23.7,18.1,79,29.80,10.0,West,6.9,-,N/A,,Clear,270,2014-02-21 11:15:00
5:35 AM,20.1,17.2,89,29.81,10.0,WNW,5.8,-,N/A,,Clear,300,2014-02-21 11:35:00
5:55 AM,19.0,16.9,91,29.81,10.0,West,6.9,-,N/A,,Clear,280,2014-02-21 11:55:00
6:15 AM,19.9,17.2,89,29.81,10.0,Calm,Calm,-,N/A,,Clear,0,2014-02-21 12:15:00
6:35 AM,20.1,17.4,89,29.81,10.0,Calm,Calm,-,N/A,,Clear,0,2014-02-21 12:35:00
6:55 AM,21.6,17.4,84,29.81,10.0,Calm,Calm,-,N/A,,Clear,0,2014-02-21 12:55:00
7:15 AM,22.3,17.6,82,29.81,10.0,South,4.6,-,N/A,,Clear,190,2014-02-21 13:15:00
7:35 AM,22.8,18.1,82,29.81,10.0,SSW,5.8,-,N/A,,Clear,200,2014-02-21 13:35:00
7:55 AM,23.5,18.9,82,29.81,10.0,Calm,Calm,-,N/A,,Clear,0,2014-02-21 13:55:00
8:15 AM,24.4,19.2,81,29.81,10.0,Calm,Calm,-,N/A,,Clear,0,2014-02-21 14:15:00
8:35 AM,25.7,19.8,78,29.81,10.0,SSW,3.5,-,N/A,,Clear,210,2014-02-21 14:35:00
8:55 AM,26.8,20.1,76,29.80,10.0,Calm,Calm,-,N/A,,Clear,0,2014-02-21 14:55:00
9:15 AM,28.4,21.2,74,29.79,10.0,SSW,3.5,-,N/A,,Clear,200,2014-02-21 15:15:00
9:35 AM,29.8,21.4,71,29.78,10.0,Calm,Calm,-,N/A,,Clear,0,2014-02-21 15:35:00
9:55 AM,31.1,22.1,69,29.77,10.0,Calm,Calm,-,N/A,,Clear,0,2014-02-21 15:55:00
10:15 AM,32.0,22.3,67,29.77,10.0,Calm,Calm,-,N/A,,Clear,0,2014-02-21 16:15:00
10:35 AM,33.3,23.0,66,29.77,10.0,Calm,Calm,-,N/A,,Clear,0,2014-02-21 16:35:00
10:55 AM,34.7,24.4,66,29.77,10.0,Calm,Calm,-,N/A,,Clear,0,2014-02-21 16:55:00
11:15 AM,35.1,24.6,66,29.76,10.0,South,3.5,-,N/A,,Clear,180,2014-02-21 17:15:00
11:35 AM,36.9,25.0,62,29.76,10.0,South,3.5,-,N/A,,Scattered Clouds,190,2014-02-21 17:35:00
11:55 AM,37.4,25.5,62,29.76,10.0,Calm,Calm,-,N/A,,Scattered Clouds,0,2014-02-21 17:55:00
12:15 PM,39.2,27.0,62,29.76,10.0,SSW,3.5,-,N/A,,Scattered Clouds,210,2014-02-21 18:15:00
12:35 PM,40.3,27.3,60,29.76,10.0,Calm,Calm,-,N/A,,Clear,0,2014-02-21 18:35:00
12:55 PM,42.3,27.1,55,29.76,10.0,West,13.8,-,N/A,,Clear,270,2014-02-21 18:55:00
1:15 PM,43.9,25.7,49,29.74,10.0,West,9.2,-,N/A,,Clear,270,2014-02-21 19:15:00
1:35 PM,45.7,27.5,49,29.74,10.0,WNW,11.5,-,N/A,,Clear,290,2014-02-21 19:35:00
1:55 PM,47.5,28.2,47,29.75,10.0,WNW,16.1,21.9,N/A,,Clear,300,2014-02-21 19:55:00
2:15 PM,47.7,28.4,47,29.74,10.0,WNW,19.6,28.8,N/A,,Scattered Clouds,300,2014-02-21 20:15:00
2:35 PM,48.0,28.9,48,29.74,10.0,WNW,15.0,-,N/A,,Clear,300,2014-02-21 20:35:00
2:55 PM,47.3,28.0,47,29.75,10.0,WNW,17.3,21.9,N/A,,Scattered Clouds,290,2014-02-21 20:55:00
3:15 PM,43.7,30.4,59,29.79,10.0,WNW,34.5,41.4,N/A,,Mostly Cloudy,300,2014-02-21 21:15:00
3:35 PM,42.8,36.1,77,29.77,10.0,West,10.4,-,N/A,,Scattered Clouds,260,2014-02-21 21:35:00
3:55 PM,44.4,33.1,64,29.77,10.0,WNW,13.8,-,N/A,,Scattered Clouds,290,2014-02-21 21:55:00
4:15 PM,42.8,32.2,66,29.77,10.0,NNW,5.8,-,N/A,,Clear,330,2014-02-21 22:15:00
4:35 PM,44.2,32.5,63,29.77,10.0,NW,4.6,-,N/A,,Clear,320,2014-02-21 22:35:00
4:55 PM,43.0,32.0,65,29.78,10.0,West,5.8,-,N/A,,Mostly Cloudy,280,2014-02-21 22:55:00
5:15 PM,44.4,31.3,60,29.81,10.0,NW,27.6,35.7,N/A,,Mostly Cloudy,310,2014-02-21 23:15:00
5:35 PM,39.9,33.3,77,29.81,10.0,NNW,12.7,25.3,N/A,,Mostly Cloudy,330,2014-02-21 23:35:00
5:55 PM,37.6,33.1,84,29.81,10.0,Calm,Calm,-,N/A,,Scattered Clouds,0,2014-02-21 23:55:00
6:15 PM,34.9,32.0,89,29.81,10.0,SSW,4.6,-,N/A,,Clear,210,2014-02-22 00:15:00
6:35 PM,35.1,32.4,90,29.81,10.0,Calm,Calm,-,N/A,,Clear,0,2014-02-22 00:35:00
6:55 PM,32.7,31.6,96,29.82,10.0,WSW,4.6,-,N/A,,Clear,240,2014-02-22 00:55:00
7:15 PM,32.0,30.7,95,29.83,10.0,SW,4.6,-,N/A,,Clear,230,2014-02-22 01:15:00
7:35 PM,33.1,31.8,95,29.83,10.0,Calm,Calm,-,N/A,,Clear,0,2014-02-22 01:35:00
7:55 PM,32.0,30.6,94,29.83,10.0,Calm,Calm,-,N/A,,Clear,0,2014-02-22 01:55:00
8:15 PM,33.8,31.1,90,29.85,10.0,Calm,Calm,-,N/A,,Clear,0,2014-02-22 02:15:00
8:35 PM,32.0,30.0,92,29.85,10.0,Calm,Calm,-,N/A,,Clear,0,2014-02-22 02:35:00
8:55 PM,32.0,29.8,92,29.86,10.0,Calm,Calm,-,N/A,,Clear,0,2014-02-22 02:55:00
9:15 PM,30.7,29.1,94,29.85,10.0,Calm,Calm,-,N/A,,Clear,0,2014-02-22 03:15:00
9:35 PM,29.1,28.8,99,29.86,10.0,Calm,Calm,-,N/A,,Clear,0,2014-02-22 03:35:00
9:55 PM,28.4,28.4,100,29.86,10.0,Calm,Calm,-,N/A,,Clear,0,2014-02-22 03:55:00
10:15 PM,28.6,28.6,100,29.87,10.0,Calm,Calm,-,N/A,,Clear,0,2014-02-22 04:15:00
10:35 PM,29.3,28.9,99,29.86,10.0,Calm,Calm,-,N/A,,Clear,0,2014-02-22 04:35:00
10:55 PM,27.9,27.7,99,29.87,10.0,Calm,Calm,-,N/A,,Clear,0,2014-02-22 04:55:00
11:15 PM,28.6,28.6,100,29.87,10.0,Calm,Calm,-,N/A,,Clear,0,2014-02-22 05:15:00
11:35 PM,27.5,27.5,100,29.87,10.0,NW,3.5,-,N/A,,Clear,310,2014-02-22 05:35:00
11:55 PM,27.7,27.7,100,29.87,10.0,Calm,Calm,-,N/A,,Clear,0,2014-02-22 05:55:00